This is the latest recevied weather packets stored in our database for station/object IW1QQG-13. If no packets are shown the sender has not sent any weather packets the latest 10 day(s).
| Time | Temp. | Humidity | Pressure | Rain* | Wind** | Luminosity | Snow |
|---|---|---|---|---|---|---|---|
| 1777368615 | 19.44° C | 72% | 1016.6 hPa | 0 mm | - | - | - |
| 1777368014 | 19.44° C | 72% | 1016.6 hPa | 0 mm | - | 59 W/m² | - |
| 1777367414 | 19.44° C | 72% | 1016.6 hPa | 0 mm | - | 11 W/m² | - |
| 1777366814 | 18.89° C | 73% | 1016.6 hPa | 0 mm | - | 0 W/m² | - |
| 1777366215 | 18.89° C | 74% | 1016.6 hPa | 0 mm | - | - | - |
| 1777365614 | 17.78° C | 76% | 1016.6 hPa | 0 mm | - | 0 W/m² | - |
| 1777365014 | 17.78° C | 77% | 1016.6 hPa | 0 mm | - | 276 W/m² | - |
| 1777364414 | 17.78° C | 77% | 1016.6 hPa | 0 mm | - | 293 W/m² | - |
| 1777363814 | 18.89° C | 73% | 1016.6 hPa | 0 mm | - | - | - |
| 1777363214 | 18.89° C | 72% | 1016.6 hPa | 0 mm | - | - | - |
| 1777362614 | 18.89° C | 74% | 1016.6 hPa | 0 mm | - | - | - |
| 1777362014 | 18.89° C | 73% | 1016.6 hPa | 0 mm | - | - | - |
| 1777361414 | 18.89° C | 76% | 1016.6 hPa | 0 mm | - | - | - |
| 1777360814 | 17.22° C | 79% | 1016.6 hPa | 0 mm | - | 314 W/m² | - |
| 1777360214 | 16.67° C | 83% | 1016.6 hPa | 0 mm | - | 205 W/m² | - |
| 1777359614 | 15.56° C | 86% | 1016.6 hPa | 0 mm | - | 185 W/m² | - |
| 1777359014 | 15.56° C | 87% | 1016.6 hPa | 0 mm | - | 151 W/m² | - |
| 1777358414 | 15° C | 88% | 1016.6 hPa | 0 mm | - | 106 W/m² | - |
| 1777357814 | 15° C | 90% | 1016.6 hPa | 0 mm | - | 71 W/m² | - |
| 1777357218 | 15° C | 90% | 1016.3 hPa | 0 mm | - | 50 W/m² | - |
| 1777356614 | 14.44° C | 90% | 1016.3 hPa | 0 mm | - | 43 W/m² | - |
| 1777356014 | 14.44° C | 91% | 1016.3 hPa | 0 mm | - | 42 W/m² | - |
| 1777355414 | 14.44° C | 91% | 1016.3 hPa | 0 mm | - | 40 W/m² | - |
| 1777354814 | 14.44° C | 92% | 1016.3 hPa | 0 mm | - | 25 W/m² | - |
| 1777354214 | 14.44° C | 92% | 1015.9 hPa | 0 mm | - | 23 W/m² | - |
* Rain latest hour (hover to see other rain measurements)
** Current wind speed in m/s (hover to see current wind gust speed)